Location: Chrome
(40.5765°N, 74.2163°W)
Time: 22:28:34
(UTC+00:00)

Cosmos 371 Rocket - Pass Details

Date: 06 December 2019
Orbit: 683 x 700 km, 74.0° (Epoch: 17 January)

Event Time Altitude Azimuth Distance (km) Brightness Sun altitude
Rises 21:57:57 0° 339° (NNW) 3,090 6.6 -5.6°
Reaches altitude 10° 22:00:17 10° 337° (NNW) 2,169 5.8 -6.0°
Maximum altitude 22:05:10 76° 253° (WSW) 726 3.6 -6.8°
Drops below altitude 10° 22:10:01 10° 168° (SSE) 2,154 6.0 -7.7°
Sets 22:12:19 0° 167° (SSE) 3,066 6.8 -8.1°
